This is the latest recevied weather packets stored in our database for station/object DC7RY. If no packets are shown the sender has not sent any weather packets the latest 10 day(s).
| Time | Temp. | Humidity | Pressure | Rain* | Wind** | Luminosity | Snow |
|---|---|---|---|---|---|---|---|
| 1777733426 | 28.33° C | 26% | 1013.4 hPa | 0 mm | - | 327 W/m² | - |
| 1777732831 | 28.89° C | 26% | 1013.5 hPa | 0 mm | - | 336 W/m² | - |
| 1777732220 | 29.44° C | 24% | 1013.8 hPa | 0 mm | - | 383 W/m² | - |
| 1777731625 | 29.44° C | 25% | 1013.9 hPa | 0 mm | - | 399 W/m² | - |
| 1777731017 | 28.89° C | 25% | 1014.1 hPa | 0 mm | - | 399 W/m² | - |
| 1777730425 | 28.89° C | 24% | 1014.2 hPa | 0 mm | - | 403 W/m² | - |
| 1777729832 | 28.33° C | 25% | 1014.2 hPa | 0 mm | - | 402 W/m² | - |
| 1777729224 | 27.78° C | 24% | 1014.3 hPa | 0 mm | - | 421 W/m² | - |
| 1777728631 | 27.78° C | 25% | 1014.5 hPa | 0 mm | - | 408 W/m² | - |
| 1777728023 | 27.22° C | 26% | 1014.8 hPa | 0 mm | - | 429 W/m² | - |
| 1777727431 | 26.67° C | 25% | 1014.9 hPa | 0 mm | - | 422 W/m² | - |
| 1777726823 | 25.56° C | 26% | 1014.9 hPa | 0 mm | - | 421 W/m² | - |
| 1777726231 | 25° C | 27% | 1015 hPa | 0 mm | - | 383 W/m² | - |
| 1777725623 | 25° C | 27% | 1015.1 hPa | 0 mm | - | 252 W/m² | - |
| 1777725027 | 24.44° C | 29% | 1015.1 hPa | 0 mm | - | 170 W/m² | - |
| 1777724420 | 23.89° C | 30% | 1015.2 hPa | 0 mm | - | 225 W/m² | - |
| 1777723828 | 23.33° C | 31% | 1015.4 hPa | 0 mm | - | 230 W/m² | - |
| 1777723219 | 23.33° C | 32% | 1015.5 hPa | 0 mm | - | 101 W/m² | - |
| 1777722627 | 23.33° C | 34% | 1015.6 hPa | 0 mm | - | 50 W/m² | - |
| 1777722018 | 23.89° C | 32% | 1015.8 hPa | 0 mm | - | 56 W/m² | - |
| 1777721426 | 24.44° C | 34% | 1015.9 hPa | 0 mm | - | 55 W/m² | - |
| 1777720819 | 24.44° C | 34% | 1016.1 hPa | 0 mm | - | 78 W/m² | - |
| 1777720227 | 23.89° C | 33% | 1016.4 hPa | 0 mm | - | 90 W/m² | - |
| 1777719618 | 23.33° C | 33% | 1016.4 hPa | 0 mm | - | 415 W/m² | - |
| 1777719025 | 22.22° C | 36% | 1016.5 hPa | 0 mm | - | 406 W/m² | - |
* Rain latest hour (hover to see other rain measurements)
** Current wind speed in m/s (hover to see current wind gust speed)